• In India
  • List of Countries
  • For 7 days
  • Water Temperature
  • Satellite Maps
  • Weather Map
  • Weather Widgets
  • user-avatar
    Login

    Hourly Weather Fier

    Today, 12 December, Tuesday

    Time Temperature Precipitation Wind Pressure Humidity
    00:00 +9°C° 0 mm 8 mps 764 mmHg 84%
    01:00 +9°C° 0 mm 8 mps 763 mmHg 87%
    02:00 +9°C° 0 mm 8 mps 763 mmHg 87%
    03:00 +9°C° 0 mm 7 mps 763 mmHg 87%
    04:00 +10°C° 0 mm 7 mps 763 mmHg 87%
    05:00 +10°C° 0 mm 7 mps 764 mmHg 87%
    06:00 +10°C° 0 mm 7 mps 764 mmHg 88%
    07:00 +10°C° 0 mm 6 mps 764 mmHg 88%
    08:00 +11°C° 0 mm 7 mps 764 mmHg 85%
    09:00 +12°C° 0 mm 7 mps 764 mmHg 82%
    10:00 +15°C° 0 mm 7 mps 764 mmHg 79%
    11:00 +15°C° 0 mm 7 mps 764 mmHg 78%
    12:00 +16°C° 0 mm 7 mps 764 mmHg 76%
    13:00 +16°C° 0 mm 7 mps 764 mmHg 74%
    14:00 +16°C° 0 mm 7 mps 764 mmHg 78%
    15:00 +15°C° 0 mm 7 mps 764 mmHg 82%
    16:00 +14°C° 0 mm 6 mps 764 mmHg 85%
    17:00 +13°C° 0 mm 6 mps 764 mmHg 86%
    18:00 +13°C° 0 mm 6 mps 764 mmHg 87%
    19:00 +11°C° 0 mm 6 mps 765 mmHg 88%
    20:00 +11°C° 0 mm 6 mps 765 mmHg 88%
    21:00 +11°C° 0 mm 6 mps 765 mmHg 88%
    22:00 +11°C° 0 mm 6 mps 765 mmHg 87%
    23:00 +11°C° 0 mm 6 mps 765 mmHg 87%

    Tomorrow, 13 December, Wednesday

    Time Temperature Precipitation Wind Pressure Humidity
    00:00 +10°C° 0 mm 6 mps 766 mmHg 87%
    01:00 +10°C° 0 mm 6 mps 766 mmHg 87%
    02:00 +10°C° 0 mm 6 mps 765 mmHg 88%
    03:00 +10°C° 0 mm 6 mps 765 mmHg 88%
    04:00 +10°C° 0 mm 6 mps 765 mmHg 88%
    05:00 +10°C° 0 mm 6 mps 765 mmHg 88%
    06:00 +10°C° 0 mm 6 mps 765 mmHg 88%
    07:00 +10°C° 0 mm 6 mps 765 mmHg 88%
    08:00 +11°C° 0 mm 6 mps 765 mmHg 84%
    09:00 +14°C° 0 mm 6 mps 765 mmHg 80%
    10:00 +15°C° 0 mm 6 mps 765 mmHg 76%
    11:00 +16°C° 0 mm 7 mps 764 mmHg 73%
    12:00 +16°C° 0 mm 7 mps 764 mmHg 70%
    13:00 +17°C° 0 mm 7 mps 763 mmHg 67%
    14:00 +16°C° 0.1 mm 7 mps 763 mmHg 71%
    15:00 +15°C° 0.1 mm 6 mps 763 mmHg 76%
    16:00 +14°C° 0.1 mm 6 mps 762 mmHg 80%
    17:00 +14°C° 0.4 mm 6 mps 762 mmHg 82%
    18:00 +13°C° 0.4 mm 6 mps 762 mmHg 85%
    19:00 +13°C° 0.4 mm 6 mps 762 mmHg 87%
    20:00 +13°C° 1.4 mm 5 mps 762 mmHg 89%
    21:00 +13°C° 1.4 mm 5 mps 762 mmHg 91%
    22:00 +12°C° 1.4 mm 5 mps 762 mmHg 94%
    23:00 +12°C° 1.1 mm 5 mps 762 mmHg 94%

    Day after tomorrow, 14 December, Thursday

    Time Temperature Precipitation Wind Pressure Humidity
    00:00 +12°C° 1.1 mm 4 mps 762 mmHg 95%
    01:00 +12°C° 1.1 mm 4 mps 762 mmHg 95%
    02:00 +12°C° 0.2 mm 4 mps 762 mmHg 95%
    03:00 +11°C° 0.2 mm 4 mps 762 mmHg 94%
    04:00 +11°C° 0.2 mm 4 mps 762 mmHg 93%
    05:00 +10°C° 0.1 mm 3 mps 762 mmHg 92%
    06:00 +10°C° 0.1 mm 3 mps 762 mmHg 92%
    07:00 +9°C° 0.1 mm 2 mps 763 mmHg 91%
    08:00 +10°C° 0 mm 2 mps 763 mmHg 84%
    09:00 +12°C° 0 mm 2 mps 763 mmHg 78%
    10:00 +13°C° 0 mm 2 mps 763 mmHg 71%
    11:00 +13°C° 0 mm 2 mps 763 mmHg 69%
    12:00 +14°C° 0 mm 2 mps 763 mmHg 66%
    13:00 +14°C° 0 mm 2 mps 762 mmHg 63%
    14:00 +13°C° 0 mm 2 mps 762 mmHg 68%
    15:00 +13°C° 0 mm 2 mps 762 mmHg 73%
    16:00 +12°C° 0 mm 2 mps 762 mmHg 78%
    17:00 +10°C° 0 mm 2 mps 762 mmHg 80%
    18:00 +10°C° 0 mm 3 mps 762 mmHg 83%
    19:00 +9°C° 0 mm 3 mps 762 mmHg 85%
    20:00 +9°C° 0 mm 3 mps 762 mmHg 85%
    21:00 +8°C° 0 mm 4 mps 762 mmHg 85%
    22:00 +8°C° 0 mm 4 mps 762 mmHg 85%
    23:00 +8°C° 0 mm 4 mps 762 mmHg 83%

    15 December, Friday

    Time Temperature Precipitation Wind Pressure Humidity
    00:00 +7°C° 0 mm 4 mps 762 mmHg 82%
    01:00 +7°C° 0 mm 5 mps 762 mmHg 80%
    02:00 +7°C° 0 mm 5 mps 761 mmHg 79%
    03:00 +7°C° 0 mm 5 mps 761 mmHg 79%
    04:00 +7°C° 0 mm 5 mps 760 mmHg 78%
    05:00 +8°C° 0 mm 5 mps 760 mmHg 78%
    06:00 +8°C° 0 mm 6 mps 760 mmHg 78%
    07:00 +8°C° 0 mm 6 mps 760 mmHg 79%
    08:00 +10°C° 0 mm 7 mps 760 mmHg 77%
    09:00 +11°C° 0 mm 7 mps 760 mmHg 76%
    10:00 +12°C° 0 mm 7 mps 760 mmHg 74%
    11:00 +13°C° 0 mm 8 mps 759 mmHg 73%
    12:00 +15°C° 0 mm 8 mps 758 mmHg 72%
    13:00 +15°C° 0 mm 9 mps 758 mmHg 71%
    14:00 +15°C° 0 mm 9 mps 757 mmHg 74%
    15:00 +13°C° 0 mm 9 mps 757 mmHg 78%
    16:00 +12°C° 0 mm 9 mps 757 mmHg 82%
    17:00 +12°C° 0 mm 9 mps 757 mmHg 83%
    18:00 +11°C° 0 mm 8 mps 757 mmHg 84%
    19:00 +11°C° 0 mm 8 mps 757 mmHg 86%
    20:00 +11°C° 0 mm 8 mps 757 mmHg 86%
    21:00 +11°C° 0 mm 8 mps 757 mmHg 86%
    22:00 +11°C° 0 mm 9 mps 757 mmHg 86%
    23:00 +11°C° 0.2 mm 9 mps 756 mmHg 87%

    16 December, Saturday

    Time Temperature Precipitation Wind Pressure Humidity
    00:00 +11°C° 0.2 mm 8 mps 756 mmHg 88%
    01:00 +11°C° 0.2 mm 8 mps 756 mmHg 89%
    02:00 +11°C° 0.2 mm 8 mps 756 mmHg 89%
    03:00 +11°C° 0.2 mm 9 mps 755 mmHg 89%
    04:00 +12°C° 0.2 mm 9 mps 755 mmHg 89%
    05:00 +12°C° 0.8 mm 8 mps 755 mmHg 89%
    06:00 +12°C° 0.8 mm 8 mps 756 mmHg 90%
    07:00 +12°C° 0.8 mm 8 mps 756 mmHg 90%
    08:00 +12°C° 1.3 mm 7 mps 756 mmHg 89%
    09:00 +14°C° 1.3 mm 7 mps 756 mmHg 88%
    10:00 +14°C° 1.3 mm 7 mps 756 mmHg 87%
    11:00 +14°C° 1.9 mm 6 mps 756 mmHg 88%
    12:00 +14°C° 1.9 mm 5 mps 756 mmHg 89%
    13:00 +14°C° 1.9 mm 5 mps 756 mmHg 89%
    14:00 +13°C° 2.5 mm 4 mps 756 mmHg 91%
    15:00 +13°C° 2.5 mm 3 mps 756 mmHg 93%
    16:00 +13°C° 2.5 mm 2 mps 756 mmHg 95%
    17:00 +13°C° 1.9 mm 2 mps 756 mmHg 95%
    18:00 +13°C° 1.9 mm 2 mps 757 mmHg 96%
    19:00 +12°C° 1.9 mm 1 mps 757 mmHg 96%
    20:00 +12°C° 1.1 mm 1 mps 757 mmHg 95%
    21:00 +12°C° 1.1 mm 1 mps 758 mmHg 94%
    22:00 +12°C° 1.1 mm 1 mps 758 mmHg 93%
    23:00 +12°C° 0.4 mm 1 mps 758 mmHg 92%

    17 December, Sunday

    Time Temperature Precipitation Wind Pressure Humidity
    00:00 +12°C° 0.4 mm 1 mps 758 mmHg 91%
    01:00 +12°C° 0.4 mm 1 mps 758 mmHg 89%
    02:00 +11°C° 0.1 mm 1 mps 758 mmHg 88%
    03:00 +11°C° 0.1 mm 1 mps 758 mmHg 86%
    04:00 +11°C° 0.1 mm 1 mps 758 mmHg 85%
    05:00 +11°C° 0 mm 1 mps 758 mmHg 83%
    06:00 +10°C° 0 mm 1 mps 759 mmHg 81%
    07:00 +10°C° 0 mm 1 mps 759 mmHg 80%
    08:00 +10°C° 0 mm 2 mps 759 mmHg 75%
    09:00 +12°C° 0 mm 2 mps 759 mmHg 71%
    10:00 +13°C° 0 mm 2 mps 759 mmHg 66%
    11:00 +13°C° 0 mm 3 mps 759 mmHg 64%
    12:00 +13°C° 0 mm 3 mps 758 mmHg 61%
    13:00 +14°C° 0 mm 3 mps 758 mmHg 59%
    14:00 +13°C° 0 mm 3 mps 758 mmHg 63%
    15:00 +12°C° 0 mm 3 mps 758 mmHg 68%
    16:00 +11°C° 0 mm 3 mps 759 mmHg 72%
    17:00 +10°C° 0 mm 3 mps 759 mmHg 73%
    18:00 +10°C° 0 mm 3 mps 759 mmHg 75%
    19:00 +9°C° 0 mm 3 mps 759 mmHg 77%
    20:00 +8°C° 0 mm 4 mps 760 mmHg 77%
    21:00 +8°C° 0 mm 4 mps 760 mmHg 78%
    22:00 +7°C° 0 mm 4 mps 760 mmHg 78%
    23:00 +7°C° 0 mm 4 mps 760 mmHg 79%
    Show more